Location: Gorrie
(43.8742°N, 81.1087°W)
Time: 15:30:48
(UTC+00:00)

SL-4 R/B - Pass Details

Date: 09 December 2025
Orbit: 385 x 521 km, 51.6° (Epoch: 19 January)

Event Time Altitude Azimuth Distance (km) Brightness Sun altitude
Exits shadow 10:47:26 22° 20° (NNE) 921 3.2 -20.8°
Drops below altitude 10° 10:49:42 10° 65° (ENE) 1,430 4.9 -20.4°
Sets 10:52:00 0° 81° (E) 2,273 6.4 -19.9°
